Flag for Germany Weather past 2 weeks in Alsdorf, North Rhine-Westphalia, Germany

Now
61 °F

Passing clouds.


Feels Like: 61 °F
Forecast: 43 / 61 °F
Wind: 9 mph from North

Location: Maastricht Airport Zuid Limburg

Current Time: Sep 22, 2014 at 5:12:48 PM

Latest Report: Sep 22, 2014 at 4:25 PM


Visibility: N/A

Pressure: 30.12 "Hg

Humidity: 59%

Dew point: 46 °F

Location of AlsdorfLocation

Historic Weather in Alsdorf — Graph

°F

Alsdorf temperature yesterday

Maximum temperature yesterday: 63 °F (at 2:25 AM)
Minimum temperature yesterday: 52 °F (at 10:55 PM)
Average temperature yesterday: 60 °F

Past Weeks' High & Low Weather Summary

 TemperatureHumidityPressure
High77 °F (Sep 17, 3:25 PM)100% (Sep 8, 1:55 AM)30.27 "Hg (Sep 8, 1:55 AM)
Low46 °F (Sep 12, 5:25 AM)50% (Sep 17, 1:55 PM)29.80 "Hg (Sep 18, 8:25 AM)
Average61 °F83%30.04 "Hg
* Reported Sep 7 3:25 PM — Sep 22 3:55 PM, Alsdorf, Weather by CustomWeather, © 2014

Note: Actual official high and low records may vary slightly from our data, if they occured in-between our weather recording intervals... More about our weather records

Advertising

Alsdorf weather history for previous 24 hours

 ConditionsComfort  
Time TempWeatherWind HumidityBarometerVisibility
3:55 PM
Sep 22
61 °FPassing clouds.12 mph63%30.12 "HgN/A
3:25 PM59 °FPassing clouds.14 mph63%30.12 "HgN/A
2:55 PM59 °FScattered clouds.14 mph59%30.12 "HgN/A
2:25 PM61 °FScattered clouds.15 mph55%30.12 "HgN/A
1:55 PM61 °FBroken clouds.13 mph59%30.12 "HgN/A
1:25 PM61 °FPartly sunny.14 mph63%30.12 "HgN/A
12:55 PM59 °FBroken clouds.14 mph68%30.12 "HgN/A
12:25 PM59 °FScattered clouds.10 mph68%30.12 "HgN/A
11:55 AM59 °FPassing clouds.13 mph63%30.12 "HgN/A
11:25 AM57 °FClear.9 mph72%30.15 "HgN/A
10:55 AM57 °FClear.12 mph72%30.15 "HgN/A
10:25 AM57 °FClear.8 mph77%30.12 "Hg6 mi
9:55 AM55 °FClear.6 mph77%30.15 "Hg5 mi
9:25 AM54 °FClear.7 mph82%30.15 "Hg5 mi
8:55 AM54 °FClear.7 mph82%30.15 "Hg5 mi
8:25 AM54 °FClear.5 mph82%30.15 "Hg5 mi
7:55 AM54 °FClear.5 mph82%30.15 "Hg4 mi
7:25 AM52 °FClear.5 mph94%30.15 "Hg4 mi
6:55 AM54 °FClear.5 mph88%30.15 "Hg4 mi
6:25 AM52 °FClear.6 mph94%30.15 "Hg4 mi
5:55 AM52 °FClear.6 mph94%30.15 "Hg4 mi
5:25 AM52 °FClear.5 mph94%30.15 "Hg4 mi
4:55 AM52 °FPassing clouds.5 mph94%30.15 "Hg4 mi
4:25 AM50 °FPassing clouds.5 mph100%30.15 "Hg4 mi
3:55 AM52 °FClear.6 mph94%30.15 "Hg4 mi
3:25 AM52 °FPassing clouds.3 mph94%30.18 "Hg5 mi
2:55 AM52 °FClear.3 mph94%30.18 "Hg5 mi
2:25 AM52 °FClear.5 mph94%30.18 "Hg5 mi
1:55 AM54 °FPassing clouds.5 mph88%30.15 "Hg6 mi
1:25 AM54 °FPartly cloudy.5 mph88%30.15 "Hg6 mi
12:55 AM54 °FMostly cloudy.5 mph88%30.15 "Hg5 mi
12:25 AM54 °FPassing clouds.5 mph88%30.15 "Hg5 mi
11:55 PM
Sep 21
52 °FPassing clouds.5 mph94%30.15 "Hg4 mi
11:25 PM52 °FClear.5 mph94%30.15 "Hg4 mi
10:55 PM52 °FCool.5 mph94%30.15 "Hg5 mi
10:25 PM54 °FCool.3 mph88%30.15 "Hg6 mi
9:55 PM54 °FCool.5 mph88%30.12 "HgN/A
9:25 PM54 °FCool.5 mph82%30.12 "HgN/A
8:55 PM55 °FPassing clouds.6 mph77%30.12 "HgN/A
8:25 PM57 °FClear.6 mph77%30.12 "HgN/A
7:55 PM59 °FClear.9 mph72%30.09 "HgN/A
7:25 PM59 °FPassing clouds.8 mph72%30.09 "HgN/A
6:55 PM59 °FScattered clouds.9 mph72%30.09 "HgN/A
6:25 PM61 °FPartly sunny.7 mph68%30.07 "HgN/A
5:55 PM61 °FClear.9 mph63%30.07 "HgN/A
5:25 PM63 °FMild.8 mph64%30.07 "HgN/A
Weather by CustomWeather, © 2014

See weather overviewHow to use our weather pages